Weather History for K5H4 - September, 2013

Change the Weather History Date:

Thursday, September 19, 2013

  Actual Average (KRUG) Record (KRUG)
Temperature  
Mean Temperature 54 °F -  
Max Temperature 60 °F 65 °F 88 °F (1960)
Min Temperature 48 °F 44 °F 25 °F (1957)
Degree Days  
Heating Degree Days 11    
Growing Degree Days 4 (Base 50)    
Moisture  
Dew Point 53 °F    
Average Humidity 93    
Maximum Humidity 100    
Minimum Humidity 72    
Precipitation  
Precipitation 0.00 in - - ()
Sea Level Pressure  
Sea Level Pressure 29.82 in    
Wind  
Wind Speed 11 mph (WNW)    
Max Wind Speed 23 mph    
Max Gust Speed 33 mph    
Visibility 8 miles    
Events Rain    
Averages and records for this station are not official NWS values.
T = Trace of Precipitation, MM = Missing Value Source: NWS Daily Summary

Daily Weather History Graph

Daily Weather History Graph

Search for Another Location

Airport or City:

Trip Planner

Search our weather history database for the weather conditions in past years. The results will help you decide how hot, cold, wet, or windy it might be!

Date:

Astronomy

Sep. 19, 2013 Rise Set
Actual Time 7:22 AM CDT 7:43 PM CDT
Civil Twilight 6:51 AM CDT 8:13 PM CDT
Nautical Twilight 6:15 AM CDT 8:50 PM CDT
Astronomical Twilight 5:37 AM CDT 9:28 PM CDT
Moon 7:36 PM CDT (9/19) 7:37 AM CDT (9/19)
Length of Visible Light 13h 22m
Length of Day
12h 20m
Full, 100% of the Moon is Illuminated
Sep 19
Full
Sep 26
Last Quarter
Oct 4
New
Oct 11
First Quarter
Oct 18
Full

Hourly Weather History & Observations

Time (CDT) Temp. Dew Point Humidity Pressure Visibility Wind Dir Wind Speed Gust Speed Precip Events Conditions
12:15 AM 57.2 °F 57.2 °F 100% 29.60 in 3.0 mi Calm Calm - N/A   Clear
12:35 AM 55.4 °F 55.4 °F 100% 29.60 in 0.8 mi Calm Calm - N/A   Mist
12:55 AM 55.4 °F 55.4 °F 100% 29.64 in 3.0 mi SSW 5.8 mph - N/A   Partly Cloudy
1:15 AM 59.0 °F 59.0 °F 100% 29.65 in 9.0 mi South 3.5 mph - N/A   Partly Cloudy
1:35 AM 57.2 °F 57.2 °F 100% 29.66 in 5.0 mi SSE 3.5 mph - N/A   Clear
1:55 AM 59.0 °F 59.0 °F 100% 29.66 in 9.0 mi South 4.6 mph - N/A   Scattered Clouds
2:15 AM 59.0 °F 59.0 °F 100% 29.67 in 9.0 mi SW 5.8 mph - N/A   Scattered Clouds
2:35 AM 57.2 °F 57.2 °F 100% 29.67 in 7.0 mi WSW 5.8 mph - N/A   Partly Cloudy
2:55 AM 59.0 °F 59.0 °F 100% 29.67 in 7.0 mi WSW 9.2 mph - N/A   Clear
3:15 AM 59.0 °F 59.0 °F 100% 29.68 in 5.0 mi West 13.8 mph 18.4 mph N/A   Mostly Cloudy
3:35 AM 60.8 °F 60.8 °F 100% 29.69 in 1.5 mi West 12.7 mph - N/A   Overcast
3:55 AM 60.8 °F 60.8 °F 100% 29.69 in 3.0 mi West 11.5 mph - N/A   Overcast
4:15 AM 60.8 °F 60.8 °F 100% 29.69 in 7.0 mi West 12.7 mph - N/A   Overcast
4:35 AM 59.0 °F 59.0 °F 100% 29.70 in 10.0 mi West 10.4 mph - N/A   Scattered Clouds
4:55 AM 59.0 °F 59.0 °F 100% 29.70 in 10.0 mi WNW 15.0 mph 21.9 mph N/A   Mostly Cloudy
5:15 AM 59.0 °F 59.0 °F 100% 29.71 in 10.0 mi WNW 21.9 mph 27.6 mph N/A   Overcast
5:35 AM 57.2 °F 57.2 °F 100% 29.72 in 10.0 mi West 18.4 mph 28.8 mph N/A   Mostly Cloudy
5:55 AM 57.2 °F 57.2 °F 100% 29.72 in 10.0 mi West 15.0 mph 26.5 mph N/A   Mostly Cloudy
6:15 AM 57.2 °F 57.2 °F 100% 29.73 in 10.0 mi West 19.6 mph 23.0 mph N/A   Partly Cloudy
6:35 AM 57.2 °F 57.2 °F 100% 29.74 in 10.0 mi West 11.5 mph 18.4 mph N/A   Clear
6:55 AM 55.4 °F 55.4 °F 100% 29.74 in 10.0 mi West 13.8 mph 20.7 mph N/A   Clear
7:15 AM 55.4 °F 55.4 °F 100% 29.75 in 10.0 mi West 13.8 mph 20.7 mph N/A   Clear
7:35 AM 55.4 °F 55.4 °F 100% 29.76 in 10.0 mi West 15.0 mph - N/A   Clear
7:55 AM 53.6 °F 53.6 °F 100% 29.77 in 10.0 mi West 11.5 mph 18.4 mph N/A   Clear
8:15 AM 53.6 °F 53.6 °F 100% 29.77 in 10.0 mi West 11.5 mph 16.1 mph N/A   Clear
8:35 AM 53.6 °F 53.6 °F 100% 29.77 in 10.0 mi West 13.8 mph 18.4 mph N/A   Clear
8:55 AM 55.4 °F 55.4 °F 100% 29.78 in 10.0 mi West 12.7 mph 19.6 mph N/A   Mostly Cloudy
9:15 AM 55.4 °F 53.6 °F 94% 29.78 in 10.0 mi West 15.0 mph 20.7 mph N/A   Scattered Clouds
9:35 AM 55.4 °F 51.8 °F 88% 29.78 in 10.0 mi West 16.1 mph 25.3 mph N/A   Clear
9:55 AM 57.2 °F 51.8 °F 82% 29.78 in 10.0 mi West 15.0 mph 21.9 mph N/A   Clear
10:15 AM 57.2 °F 50.0 °F 77% 29.79 in 10.0 mi WNW 15.0 mph 23.0 mph N/A   Partly Cloudy
10:35 AM 59.0 °F 50.0 °F 72% 29.80 in 10.0 mi West 15.0 mph 21.9 mph N/A   Partly Cloudy
10:55 AM 57.2 °F 50.0 °F 77% 29.80 in 10.0 mi West 13.8 mph - N/A   Mostly Cloudy
11:15 AM 57.2 °F 50.0 °F 77% 29.81 in 10.0 mi West 13.8 mph 17.3 mph N/A   Overcast
11:35 AM 59.0 °F 51.8 °F 77% 29.82 in 10.0 mi West 16.1 mph 21.9 mph N/A   Overcast
11:55 AM 59.0 °F 50.0 °F 72% 29.82 in 10.0 mi West 15.0 mph 21.9 mph N/A   Overcast
12:15 PM 59.0 °F 50.0 °F 72% 29.82 in 10.0 mi West 15.0 mph 21.9 mph N/A   Overcast
12:35 PM 59.0 °F 50.0 °F 72% 29.83 in 10.0 mi WNW 12.7 mph 20.7 mph N/A   Overcast
12:55 PM 57.2 °F 53.6 °F 88% 29.83 in 10.0 mi WNW 18.4 mph 25.3 mph N/A   Overcast
1:15 PM 57.2 °F 53.6 °F 88% 29.85 in 10.0 mi WNW 18.4 mph 24.2 mph N/A   Overcast
1:35 PM 55.4 °F 55.4 °F 100% 29.85 in 3.0 mi WNW 13.8 mph 25.3 mph N/A   Overcast
1:55 PM 55.4 °F 53.6 °F 94% 29.85 in 10.0 mi WNW 17.3 mph 24.2 mph N/A   Overcast
2:15 PM 57.2 °F 51.8 °F 82% 29.86 in 10.0 mi WNW 17.3 mph 21.9 mph N/A   Overcast
2:35 PM 57.2 °F 51.8 °F 82% 29.86 in 10.0 mi WNW 16.1 mph 25.3 mph N/A   Overcast
2:55 PM 57.2 °F 51.8 °F 82% 29.86 in 10.0 mi WNW 19.6 mph 24.2 mph N/A   Overcast
3:15 PM 57.2 °F 53.6 °F 88% 29.87 in 8.0 mi WNW 16.1 mph 24.2 mph N/A   Overcast
3:35 PM 57.2 °F 53.6 °F 88% 29.87 in 4.0 mi West 17.3 mph 24.2 mph N/A Rain Light Rain
3:55 PM 55.4 °F 55.4 °F 100% 29.87 in 1.2 mi WNW 18.4 mph 26.5 mph N/A Rain Light Rain
4:15 PM 55.4 °F 55.4 °F 100% 29.87 in 1.0 mi WNW 16.1 mph - N/A Rain Light Rain
4:35 PM 55.4 °F 55.4 °F 100% 29.88 in 10.0 mi NW 19.6 mph 26.5 mph N/A   Overcast
4:55 PM 53.6 °F 53.6 °F 100% 29.89 in 3.0 mi NW 21.9 mph 33.4 mph N/A   Overcast
5:15 PM 53.6 °F 53.6 °F 100% 29.89 in 4.0 mi NW 19.6 mph 27.6 mph N/A   Overcast
5:35 PM 53.6 °F 53.6 °F 100% 29.89 in 9.0 mi NW 23.0 mph 28.8 mph N/A   Overcast
5:55 PM 53.6 °F 53.6 °F 100% 29.90 in 5.0 mi NW 18.4 mph 24.2 mph N/A   Overcast
6:15 PM 53.6 °F 53.6 °F 100% 29.90 in 2.5 mi NW 16.1 mph 21.9 mph N/A   Overcast
6:35 PM 51.8 °F 51.8 °F 100% 29.91 in 9.0 mi NW 17.3 mph 26.5 mph N/A   Overcast
6:55 PM 51.8 °F 51.8 °F 100% 29.92 in 2.5 mi NW 16.1 mph 24.2 mph N/A   Overcast
7:15 PM 51.8 °F 51.8 °F 100% 29.93 in 5.0 mi NW 17.3 mph 25.3 mph N/A   Overcast
7:35 PM 51.8 °F 51.8 °F 100% 29.93 in 10.0 mi NW 17.3 mph 24.2 mph N/A   Overcast
7:55 PM 51.8 °F 51.8 °F 100% 29.93 in 10.0 mi NW 18.4 mph 26.5 mph N/A   Overcast
8:15 PM 50.0 °F 50.0 °F 100% 29.94 in 10.0 mi NW 18.4 mph 28.8 mph N/A   Overcast
8:35 PM 50.0 °F 50.0 °F 100% 29.95 in 10.0 mi NW 18.4 mph 26.5 mph N/A   Overcast
8:55 PM 50.0 °F 48.2 °F 94% 29.95 in 10.0 mi NW 16.1 mph 21.9 mph N/A   Overcast
9:15 PM 50.0 °F 48.2 °F 94% 29.96 in 10.0 mi NW 18.4 mph 24.2 mph N/A   Overcast
9:35 PM 50.0 °F 48.2 °F 94% 29.97 in 10.0 mi NW 15.0 mph 20.7 mph N/A   Overcast
9:55 PM 50.0 °F 46.4 °F 87% 29.97 in 10.0 mi NW 13.8 mph - N/A   Overcast
10:15 PM 50.0 °F 46.4 °F 87% 29.98 in 10.0 mi NW 15.0 mph 21.9 mph N/A   Overcast
10:35 PM 50.0 °F 44.6 °F 82% 29.98 in 10.0 mi NW 17.3 mph 21.9 mph N/A   Overcast
10:55 PM 48.2 °F 44.6 °F 87% 29.99 in 10.0 mi NW 13.8 mph 20.7 mph N/A   Mostly Cloudy
11:15 PM 48.2 °F 44.6 °F 87% 29.99 in 10.0 mi NW 15.0 mph 19.6 mph N/A   Mostly Cloudy
11:35 PM 48.2 °F 42.8 °F 82% 30.00 in 10.0 mi WNW 15.0 mph 21.9 mph N/A   Overcast
11:55 PM 48.2 °F 42.8 °F 82% 30.00 in 10.0 mi WNW 16.1 mph 23.0 mph N/A   Overcast